Weather History for Dayton, OH

Change the Weather History Date:

Saturday, June 1, 2013

  Actual Average Record
Temperature  
Mean Temperature 74 °F 66 °F  
Max Temperature 79 °F 76 °F 97 °F (1895)
Min Temperature 68 °F 57 °F 41 °F (2003)
Degree Days  
Heating Degree Days 0 2  
Month to date heating degree days 0 2  
Since 1 June heating degree days 0 2  
Since 1 July heating degree days 5446 5622  
Cooling Degree Days 9 4  
Month to date cooling degree days 9 4  
Year to date cooling degree days 140 74  
Since 1 June cooling degree days 9 4  
Growing Degree Days 24 (Base 50)    
Moisture  
Dew Point 66 °F    
Average Humidity 76    
Maximum Humidity 90    
Minimum Humidity 62    
Precipitation  
Precipitation T in 0.15 in 2.58 in (1947)
Month to date precipitation T 0.15  
Year to date precipitation 14.30 17.19  
Snow  
Snow 0.00 in 0.00 in - (0.0)
Month to date snowfall 0.0 0.0  
Since 1 June snowfall 0.0 0.0  
Since 1 July snowfall 36.3 23.3  
Snow Depth 0.00 in    
Sea Level Pressure  
Sea Level Pressure 29.86 in    
Wind  
Wind Speed 14 mph (SSW)    
Max Wind Speed 24 mph    
Max Gust Speed 35 mph    
Visibility 10 miles    
Events Rain , Thunderstorm    
T = Trace of Precipitation, MM = Missing Value Source: NWS Daily Summary

Daily Weather History Graph

Daily Weather History Graph

Search for Another Location

Airport:

Trip Planner

Search our weather history database for the weather conditions in past years. The results will help you decide how hot, cold, wet, or windy it might be!

Date:

Astronomy

Jun. 01, 2013 Rise Set
Actual Time 6:10 AM EDT 8:59 PM EDT
Civil Twilight 5:38 AM EDT 9:31 PM EDT
Nautical Twilight 4:57 AM EDT 10:12 PM EDT
Astronomical Twilight 4:11 AM EDT 10:58 PM EDT
Moon 2:05 AM EDT (6/1) 2:28 PM EDT (6/1)
Length of Visible Light 15h 53m
Length of Day
14h 49m
Last Quarter, 41% of the Moon is Illuminated
Jun 1
Last Quarter
Jun 8
New
Jun 16
First Quarter
Jun 23
Full
Jun 30
Last Quarter

Hourly Weather History & Observations

Time (EDT) Temp. Dew Point Humidity Pressure Visibility Wind Dir Wind Speed Gust Speed Precip Events Conditions
12:56 AM 70.0 °F 66.9 °F 90% 29.95 in 9.0 mi South 11.5 mph - N/A   Partly Cloudy
1:56 AM 70.0 °F 66.9 °F 90% 29.93 in 9.0 mi South 10.4 mph - N/A   Clear
2:56 AM 70.0 °F 66.0 °F 87% 29.93 in 10.0 mi South 10.4 mph - N/A   Clear
3:56 AM 71.1 °F 66.0 °F 84% 29.91 in 10.0 mi South 12.7 mph - N/A   Mostly Cloudy
4:56 AM 70.0 °F 66.0 °F 87% 29.88 in 10.0 mi South 10.4 mph - N/A   Partly Cloudy
5:56 AM 70.0 °F 64.9 °F 84% 29.88 in 10.0 mi South 12.7 mph - N/A   Scattered Clouds
6:56 AM 71.1 °F 64.9 °F 81% 29.90 in 10.0 mi SSW 11.5 mph - N/A   Mostly Cloudy
7:19 AM 69.8 °F 64.4 °F 83% 29.93 in 10.0 mi NW 9.2 mph - N/A   Overcast
7:56 AM 70.0 °F 64.9 °F 84% 29.91 in 10.0 mi WSW 3.5 mph - N/A   Overcast
8:48 AM 71.6 °F 66.2 °F 83% 29.91 in 9.0 mi South 5.8 mph - 0.00 in Rain Light Rain
8:56 AM 71.1 °F 66.0 °F 84% 29.89 in 10.0 mi South 4.6 mph - 0.00 in   Mostly Cloudy
9:48 AM 71.6 °F 66.2 °F 83% 29.91 in 10.0 mi SSW 10.4 mph - N/A   Overcast
9:56 AM 72.0 °F 66.9 °F 84% 29.89 in 10.0 mi SW 11.5 mph - N/A   Overcast
10:32 AM 75.2 °F 68.0 °F 78% 29.88 in 9.0 mi South 11.5 mph - N/A   Mostly Cloudy
10:56 AM 73.9 °F 66.0 °F 76% 29.86 in 10.0 mi South 16.1 mph - N/A   Overcast
11:56 AM 73.9 °F 66.0 °F 76% 29.88 in 10.0 mi South 17.3 mph 24.2 mph N/A   Overcast
12:56 PM 75.0 °F 66.9 °F 76% 29.87 in 10.0 mi South 17.3 mph - 0.00 in Rain Light Rain
1:56 PM 75.9 °F 66.0 °F 71% 29.87 in 10.0 mi SSW 17.3 mph 26.5 mph 0.00 in   Mostly Cloudy
2:56 PM 78.1 °F 64.9 °F 64% 29.86 in 10.0 mi SSW 17.3 mph - N/A   Mostly Cloudy
3:56 PM 78.1 °F 64.9 °F 64% 29.84 in 10.0 mi SSW 20.7 mph 28.8 mph N/A   Mostly Cloudy
4:56 PM 79.0 °F 64.9 °F 62% 29.82 in 10.0 mi South 18.4 mph 26.5 mph N/A   Mostly Cloudy
5:56 PM 78.1 °F 64.9 °F 64% 29.81 in 10.0 mi SSW 21.9 mph 28.8 mph N/A   Mostly Cloudy
6:56 PM 75.9 °F 66.0 °F 71% 29.78 in 10.0 mi South 17.3 mph 24.2 mph 0.00 in Rain Light Rain
7:56 PM 75.9 °F 66.0 °F 71% 29.78 in 10.0 mi SSW 15.0 mph 24.2 mph 0.00 in   Mostly Cloudy
8:56 PM 75.0 °F 68.0 °F 79% 29.79 in 10.0 mi West 16.1 mph 20.7 mph N/A Thunderstorm Thunderstorm
9:24 PM 73.4 °F 68.0 °F 83% 29.80 in 10.0 mi SW 13.8 mph 21.9 mph N/A   Mostly Cloudy
9:56 PM 73.0 °F 68.0 °F 84% 29.78 in 10.0 mi SW 12.7 mph - N/A   Mostly Cloudy
10:56 PM 72.0 °F 66.9 °F 84% 29.80 in 10.0 mi SSW 11.5 mph - N/A   Scattered Clouds
11:56 PM 71.1 °F 66.0 °F 84% 29.79 in 10.0 mi SW 15.0 mph - N/A   Partly Cloudy